Airfield :







YOU CAN JOIN US ON...

 
LOGIN :

Register | Disclaimer

   EN    FR    IT 

 









Legend :    VFR   Marginal VFR   IFR   Intensive IFR   Very Intensive IFR
Visi :
Ceiling :
>= 8 km
>= 3000ft
5 to 8 km
1000 to 3000 ft
1500m to 5 km
500 to 1000 ft
800 to 1500m
200 to 500 ft
< 800m
< 200 ft
Symbols :   Thunderstorms  Fog  Heavy snow  Heavy precipitations  Wind > 20 kt






- Airport Elevation : 215 ft
- IATA code : XGR


CYLU - Kangiqsualujjuaq (Georges River)

CURRENT METAR :
  • 302200Z 16008KT 130V190 8SM DRSN SCT015 BKN021 OVC035 M11/M15 A3029 RMK ST3SC2SC3 SNW CVR/TRACE LOOSE LAST STFD OBS/NEXT 011300 UTC SLP267

EXPIRED METARs :
  • 302100Z 21015G20KT 8SM DRSN BKN038 OVC041 M11/M14 A3026 RMK SC5SC3 SLP256

TAF N/A
CZUL FIR / North America



MET'MAP, your aeronautical weather chart ! - Copyright ORBIFLY December 2007 - Disclaimer

ORBIFLY MET'MAP TEAM :

Programming & Development : Alexandra Zaïnal
Concept & original design : Baudouin d'Aumeries
Assistance for programming : Marc-Olivier Méhu
Technical & hardware support : Manuel Goepfert

Contact : metmap@orbifly.com




SOURCES & CREDITS :

   NOAA